Regional Weather Roundup
Issued by NWS

Home | Current Version | Previous Version | Text Only | Print | Product List | Glossary On
Versions: 1 2 3 4 5 6 7 8 9 10 11 12 13 14 15 16 17 18 19 20 21 22 23 24 25 26 27 28 29 30 31 32 33 34 35 36 37 38 39 40 41 42 43 44 45 46 47 48 49 50
000
ASUS43 KMKX 200200
RWRWI

WISCONSIN REGIONAL WEATHER ROUNDUP
NATIONAL WEATHER SERVICE MILWAUKEE/SULLIVAN WI
900 PM CDT TUE AUG 19 2014

NOTE: "FAIR" INDICATES FEW OR NO CLOUDS BELOW 12,000 FEET WITH NO
SIGNIFICANT WEATHER AND/OR OBSTRUCTIONS TO VISIBILITY.

WIZ001-002-006>008-014>016-023>028-200300-
NORTHWEST WISCONSIN

CITY           SKY/WX    TMP DP  RH WIND       PRES   REMARKS
SUPERIOR ARPT  CLOUDY    63  62  97 CALM      29.79R
ASHLAND        CLOUDY    61  59  93 NE6       29.80R
HAYWARD        PTCLDY    63  62  97 CALM      29.80R
SIREN          RAIN      67  65  96 CALM      29.79R
RICE LAKE      CLOUDY    67  63  86 W6        29.79R
LADYSMITH      CLOUDY    68  63  84 NW5       29.80R
EAU CLAIRE     NOT AVBL
MENOMONIE      CLOUDY    71  66  83 CALM      29.78R
NEW RICHMOND   CLEAR     68  64  87 W3        29.77R
OSCEOLA        CLEAR     69  66  93 CALM      29.79R
$$

WIZ003>005-009-010-017-018-200300-
NORTH CENTRAL WISCONSIN

CITY           SKY/WX    TMP DP  RH WIND       PRES   REMARKS
WOODRUFF       PTCLDY    62  58  86 CALM      29.78R
RHINELANDER    PTCLDY    60  58  92 NW3       29.78R
EAGLE RIVER    CLOUDY    60  59  96 CALM      29.77R
LAND O LAKES   CLOUDY    60  58  94 CALM      29.78R
PHILLIPS       CLOUDY    63  61  93 N3        29.78R
TOMAHAWK       PTCLDY    59  57  92 CALM      29.78R
MEDFORD        RAIN      64  63  97 N5        29.78R
MERRILL        MOCLDY    65  64  96 CALM      29.77R
$$

WIZ029-030-035-036-043>047-200300-
CENTRAL WISCONSIN

CITY           SKY/WX    TMP DP  RH WIND       PRES   REMARKS
WAUSAU         MOCLDY    66  64  93 CALM      29.75R
MOSINEE        PTCLDY    64  64 100 NW3       29.77R
MARSHFIELD     PTCLDY    66  62  87 N6        29.77R
STEVENS POINT  CLOUDY    65  61  88 CALM      29.76R
WAUPACA        MOCLDY    69  64  84 N3        29.75R
WAUTOMA        NOT AVBL
WISC RAPIDS    PTCLDY    67  63  87 W3        29.78R
CAMP DOUGLAS   NOT AVBL
$$

WIZ011>013-019>022-031-037>040-048>050-200300-
NORTHEAST WISCONSIN

CITY           SKY/WX    TMP DP  RH WIND       PRES   REMARKS
ANTIGO         MOCLDY    63  61  94 NW5       29.76S
STURGEON BAY   CLOUDY    66  63  88 W3        29.72R
GREEN BAY      MOCLDY    67  65  93 CALM      29.72R
MANITOWOC      NOT AVBL
APPLETON       NOT AVBL
CLINTONVILLE   CLOUDY    68  63  83 NW6       29.73S
OSHKOSH        CLEAR     70  63  78 W3        29.74R
$$

WIZ032>034-041-042-053>061-200300-
SOUTHWEST WISCONSIN

CITY           SKY/WX    TMP DP  RH WIND       PRES   REMARKS
LA CROSSE      PTCLDY    72  65  78 CALM      29.75R
SPARTA         PTCLDY    67  63  86 CALM      29.77R
VIROQUA        FAIR      67  64  87 CALM      29.78R
BOSCOBEL       CLEAR     70  65  84 CALM      29.77R
PRAIRIE DU CHI CLEAR     73  61  65 W3        29.76R
PLATTEVILLE    FAIR      71  65  81 W5        29.78R
$$

WIZ056-057-062-063-064-067-068-200300-
SOUTH CENTRAL WISCONSIN

CITY           SKY/WX    TMP DP  RH WIND       PRES   REMARKS
BARABOO/DELLS  MOCLDY    68  62  79 CALM      29.76R
LONE ROCK      NOT AVBL
WATERTOWN      CLEAR     72  65  80 CALM      29.75R
MADISON        PTCLDY    69  64  84 CALM      29.76R
MIDDLETON      FAIR      70  64  80 CALM      29.76R
MONROE         CLEAR     72  63  73 W7        29.77R
JANESVILLE     CLEAR     73  63  68 CALM      29.75R
$$

WIZ051-052-058>065-066-070>072-200300-
SOUTHEAST WISCONSIN

CITY           SKY/WX    TMP DP  RH WIND       PRES   REMARKS
MILWAUKEE      PTCLDY    72  65  78 E3        29.74R
WAUKESHA       PTCLDY    70  63  78 NW5       29.76R
MILWAUKEE/TIMM PTCLDY    73  63  68 NW6       29.73S
RACINE         PTCLDY    71  66  84 CALM      29.76R
BURLINGTON     CLEAR     67  64  87 W3        29.74R
KENOSHA        CLEAR     69  66  90 CALM      29.75R
FOND DU LAC    CLEAR     69  61  75 W5        29.75R
SHEBOYGAN      CLEAR     68  62  81 SW3       29.74R
WEST BEND      CLEAR     72  61  68 W5        29.75R
JUNEAU         CLEAR     71  38  29 CALM      29.76R
$$

LSZ147-162-200300-
LAKE SUPERIOR

STATION/POSITION TIME  TEMP    WIND        PRES    WAVE
                       AIR SEA DIR/SP/G            HT/PER
                 (UTC) (F)     (DEG/KT/KT) (MB)    (FT/S)
W MID LAKE BUOY  0050   56 56   20/ 12/ 14 1007.9R   2/ 4
DEVILS ISLAND    0100   59     100/ 13/ 14 1008.6R
PORT WING        0100   64      CALM  /  2 1008.5R
SAXON HARBOR     0100   61      60/  6/ 10 1008.5
$$

LMZ867-665-643>646-200300-
LAKE MICHIGAN

STATION/POSITION TIME  TEMP    WIND        PRES    WAVE
                       AIR SEA DIR/SP/G            HT/PER
                 (UTC) (F)     (DEG/KT/KT) (MB)    (FT/S)
N MID LAKE BUOY  0050   63 62  190/  8/ 10 1004.5F   2/ 5
NORTHPORT PIER   0100   65     210/  2/  4 1005.1F
SISTER BAY       0026   65        CALM       N/A
ALGOMA LAKESHORE 0107           10/ 11/ 14   N/A
KEWAUNEE LAKESHO 0100   69     280/  9/ 12 1004.9R
SHEBOYGAN LAKESH 0100   70 65  200/  6/  7 1006.3R
ATWATER BUOY     0100   69     270/  2     1007.6R
MILWAUKEE LAKESH 0100   72     280/  2/  3   N/A
S MID LAKE BUOY  0050   69 67  130/  4/  6 1006.3R   2/ 5
KENOSHA   LAKESH 0100   72      CALM  /  2 1006.1R
$$

TC  - TEMPERATURE IN CELSIUS
VSB - VISIBILITY IN STATUTE MILES
WCI - WIND CHILL INDEX
HX  - HEAT INDEX



USA.gov is the U.S. government's official web portal to all federal, state and local government web resources and services.